Year,Month,Day,Hour,Minute,Value (Times are PST for windspeed in km/hr)
2016,08,22,00,00,2.30
2016,08,22,00,01,4.20
2016,08,22,00,02,3.90
2016,08,22,00,03,5.10
2016,08,22,00,04,4.80
2016,08,22,00,05,5.20
2016,08,22,00,06,1.60
2016,08,22,00,07,0.00
2016,08,22,00,08,0.20
2016,08,22,00,09,3.60
2016,08,22,00,10,5.70
2016,08,22,00,11,5.60
2016,08,22,00,12,4.80
2016,08,22,00,13,5.70
2016,08,22,00,14,7.60
2016,08,22,00,15,10.10
2016,08,22,00,16,8.40
2016,08,22,00,17,11.10
2016,08,22,00,18,7.20
2016,08,22,00,19,4.10
2016,08,22,00,20,3.00
2016,08,22,00,21,3.80
2016,08,22,00,22,4.10
2016,08,22,00,23,2.10
2016,08,22,00,24,3.20
2016,08,22,00,25,8.90
2016,08,22,00,26,3.90
2016,08,22,00,27,3.30
2016,08,22,00,28,3.20
2016,08,22,00,29,5.20
2016,08,22,00,30,4.00
2016,08,22,00,31,5.50
2016,08,22,00,32,6.20
2016,08,22,00,33,2.40
2016,08,22,00,34,2.70
2016,08,22,00,35,2.90
2016,08,22,00,36,2.60
2016,08,22,00,37,2.50
2016,08,22,00,38,3.90
2016,08,22,00,39,9.00
2016,08,22,00,40,3.70
2016,08,22,00,41,3.40
2016,08,22,00,42,7.70
2016,08,22,00,43,10.40
2016,08,22,00,44,4.80
2016,08,22,00,45,2.00
2016,08,22,00,46,2.60
2016,08,22,00,47,5.30
2016,08,22,00,48,4.30
2016,08,22,00,49,0.40
2016,08,22,00,50,0.00
2016,08,22,00,51,3.30
2016,08,22,00,52,0.70
2016,08,22,00,53,4.50
2016,08,22,00,54,10.80
2016,08,22,00,55,7.00
2016,08,22,00,56,4.30
2016,08,22,00,57,8.10
2016,08,22,00,58,4.30
2016,08,22,00,59,4.00
2016,08,22,01,00,3.60
2016,08,22,01,01,4.70
2016,08,22,01,02,2.60
2016,08,22,01,03,3.80
2016,08,22,01,04,3.60
2016,08,22,01,05,4.00
2016,08,22,01,06,1.70
2016,08,22,01,07,1.00
2016,08,22,01,08,3.30
2016,08,22,01,09,4.50
2016,08,22,01,10,2.20
2016,08,22,01,11,4.70
2016,08,22,01,12,3.30
2016,08,22,01,13,6.00
2016,08,22,01,14,3.00
2016,08,22,01,15,0.20
2016,08,22,01,16,0.00
2016,08,22,01,17,1.20
2016,08,22,01,18,4.70
2016,08,22,01,19,3.00
2016,08,22,01,20,1.80
2016,08,22,01,21,0.30
2016,08,22,01,22,4.10
2016,08,22,01,23,5.80
2016,08,22,01,24,4.60
2016,08,22,01,25,3.80
2016,08,22,01,26,3.60
2016,08,22,01,27,2.90
2016,08,22,01,28,4.10
2016,08,22,01,29,4.10
2016,08,22,01,30,3.70
2016,08,22,01,31,5.40
2016,08,22,01,32,3.60
2016,08,22,01,33,3.90
2016,08,22,01,34,4.30
2016,08,22,01,35,1.50
2016,08,22,01,36,2.10
2016,08,22,01,37,2.40
2016,08,22,01,38,0.80
2016,08,22,01,39,2.00
2016,08,22,01,40,3.80
2016,08,22,01,41,2.10
2016,08,22,01,42,2.80
2016,08,22,01,43,8.20
2016,08,22,01,44,5.10
2016,08,22,01,45,1.90
2016,08,22,01,46,3.30
2016,08,22,01,47,2.60
2016,08,22,01,48,0.10
2016,08,22,01,49,2.00
2016,08,22,01,50,3.00
2016,08,22,01,51,4.30
2016,08,22,01,52,3.40
2016,08,22,01,53,1.30
2016,08,22,01,54,1.80
2016,08,22,01,55,1.80
2016,08,22,01,56,4.70
2016,08,22,01,57,4.90
2016,08,22,01,58,2.40
2016,08,22,01,59,3.50
2016,08,22,02,00,4.30
2016,08,22,02,01,5.40
2016,08,22,02,02,3.90
2016,08,22,02,03,0.70
2016,08,22,02,04,0.00
2016,08,22,02,05,0.00
2016,08,22,02,06,2.50
2016,08,22,02,07,1.80
2016,08,22,02,08,0.50
2016,08,22,02,09,3.30
2016,08,22,02,10,2.60
2016,08,22,02,11,3.60
2016,08,22,02,12,4.00
2016,08,22,02,13,2.80
2016,08,22,02,14,1.40
2016,08,22,02,15,2.00
2016,08,22,02,16,3.10
2016,08,22,02,17,8.30
2016,08,22,02,18,3.10
2016,08,22,02,19,6.60
2016,08,22,02,20,3.10
2016,08,22,02,21,2.30
2016,08,22,02,22,3.60
2016,08,22,02,23,6.50
2016,08,22,02,24,4.90
2016,08,22,02,25,5.70
2016,08,22,02,26,3.30
2016,08,22,02,27,2.70
2016,08,22,02,28,1.60
2016,08,22,02,29,2.80
2016,08,22,02,30,5.50
2016,08,22,02,31,4.40
2016,08,22,02,32,6.50
2016,08,22,02,33,4.30
2016,08,22,02,34,3.20
2016,08,22,02,35,4.80
2016,08,22,02,36,1.70
2016,08,22,02,37,1.90
2016,08,22,02,38,4.00
2016,08,22,02,39,2.40
2016,08,22,02,40,1.60
2016,08,22,02,41,2.00
2016,08,22,02,42,3.00
2016,08,22,02,43,1.60
2016,08,22,02,44,3.00
2016,08,22,02,45,2.90
2016,08,22,02,46,0.70
2016,08,22,02,47,4.00
2016,08,22,02,48,2.60
2016,08,22,02,49,3.80
2016,08,22,02,50,2.70
2016,08,22,02,51,6.60
2016,08,22,02,52,7.40
2016,08,22,02,53,10.00
2016,08,22,02,54,9.70
2016,08,22,02,55,11.10
2016,08,22,02,56,6.10
2016,08,22,02,57,3.30
2016,08,22,02,58,3.70
2016,08,22,02,59,6.20
2016,08,22,03,00,3.50
2016,08,22,03,01,4.20
2016,08,22,03,02,5.50
2016,08,22,03,03,6.80
2016,08,22,03,04,1.70
2016,08,22,03,05,5.40
2016,08,22,03,06,3.00
2016,08,22,03,07,11.40
2016,08,22,03,08,11.20
2016,08,22,03,09,7.00
2016,08,22,03,10,1.70
2016,08,22,03,11,2.60
2016,08,22,03,12,5.40
2016,08,22,03,13,6.20
2016,08,22,03,14,3.90
2016,08,22,03,15,3.00
2016,08,22,03,16,7.40
2016,08,22,03,17,4.60
2016,08,22,03,18,2.90
2016,08,22,03,19,5.20
2016,08,22,03,20,3.20
2016,08,22,03,21,3.20
2016,08,22,03,22,4.70
2016,08,22,03,23,3.50
2016,08,22,03,24,4.20
2016,08,22,03,25,5.10
2016,08,22,03,26,2.90
2016,08,22,03,27,1.80
2016,08,22,03,28,3.50
2016,08,22,03,29,6.50
2016,08,22,03,30,3.80
2016,08,22,03,31,4.70
2016,08,22,03,32,2.70
2016,08,22,03,33,2.90
2016,08,22,03,34,3.60
2016,08,22,03,35,5.60
2016,08,22,03,36,1.10
2016,08,22,03,37,2.10
2016,08,22,03,38,4.00
2016,08,22,03,39,2.70
2016,08,22,03,40,3.80
2016,08,22,03,41,4.00
2016,08,22,03,42,3.90
2016,08,22,03,43,3.60
2016,08,22,03,44,3.60
2016,08,22,03,45,5.50
2016,08,22,03,46,4.90
2016,08,22,03,47,5.50
2016,08,22,03,48,4.20
2016,08,22,03,49,2.70
2016,08,22,03,50,2.70
2016,08,22,03,51,3.40
2016,08,22,03,52,2.00
2016,08,22,03,53,3.50
2016,08,22,03,54,0.60
2016,08,22,03,55,1.60
2016,08,22,03,56,2.60
2016,08,22,03,57,5.10
2016,08,22,03,58,1.70
2016,08,22,03,59,6.40
2016,08,22,04,00,3.80
2016,08,22,04,01,5.20
2016,08,22,04,02,4.30
2016,08,22,04,03,1.90
2016,08,22,04,04,2.30
2016,08,22,04,05,4.70
2016,08,22,04,06,3.90
2016,08,22,04,07,4.40
2016,08,22,04,08,7.80
2016,08,22,04,09,9.10
2016,08,22,04,10,5.60
2016,08,22,04,11,5.50
2016,08,22,04,12,7.20
2016,08,22,04,13,8.00
2016,08,22,04,14,11.40
2016,08,22,04,15,8.50
2016,08,22,04,16,7.70
2016,08,22,04,17,7.60
2016,08,22,04,18,7.30
2016,08,22,04,19,7.60
2016,08,22,04,20,3.40
2016,08,22,04,21,2.90
2016,08,22,04,22,2.60
2016,08,22,04,23,4.00
2016,08,22,04,24,4.00
2016,08,22,04,25,4.20
2016,08,22,04,26,3.90
2016,08,22,04,27,2.00
2016,08,22,04,28,5.20
2016,08,22,04,29,4.70
2016,08,22,04,30,4.80
2016,08,22,04,31,4.50
2016,08,22,04,32,5.50
2016,08,22,04,33,5.70
2016,08,22,04,34,4.70
2016,08,22,04,35,2.90
2016,08,22,04,36,2.90
2016,08,22,04,37,3.20
2016,08,22,04,38,3.30
2016,08,22,04,39,3.40
2016,08,22,04,40,2.50
2016,08,22,04,41,2.60
2016,08,22,04,42,2.60
2016,08,22,04,43,3.10
2016,08,22,04,44,4.20
2016,08,22,04,45,2.70
2016,08,22,04,46,0.50
2016,08,22,04,47,4.50
2016,08,22,04,48,4.60
2016,08,22,04,49,3.20
2016,08,22,04,50,3.30
2016,08,22,04,51,4.80
2016,08,22,04,52,1.40
2016,08,22,04,53,0.00
2016,08,22,04,54,1.50
2016,08,22,04,55,0.50
2016,08,22,04,56,0.00
2016,08,22,04,57,0.10
2016,08,22,04,58,2.90
2016,08,22,04,59,1.10
2016,08,22,05,00,2.70
2016,08,22,05,01,2.60
2016,08,22,05,02,1.10
2016,08,22,05,03,0.00
2016,08,22,05,04,0.80
2016,08,22,05,05,0.50
2016,08,22,05,06,3.20
2016,08,22,05,07,2.30
2016,08,22,05,08,1.00
2016,08,22,05,09,0.00
2016,08,22,05,10,2.90
2016,08,22,05,11,3.20
2016,08,22,05,12,1.90
2016,08,22,05,13,0.40
2016,08,22,05,14,2.50
2016,08,22,05,15,3.00
2016,08,22,05,16,0.60
2016,08,22,05,17,0.70
2016,08,22,05,18,0.00
2016,08,22,05,19,0.10
2016,08,22,05,20,0.00
2016,08,22,05,21,0.00
2016,08,22,05,22,0.00
2016,08,22,05,23,0.00
2016,08,22,05,24,0.30
2016,08,22,05,25,0.20
2016,08,22,05,26,0.00
2016,08,22,05,27,0.00
2016,08,22,05,28,0.00
2016,08,22,05,29,0.00
2016,08,22,05,30,0.00
2016,08,22,05,31,0.00
2016,08,22,05,32,0.00
2016,08,22,05,33,0.00
2016,08,22,05,34,0.00
2016,08,22,05,35,0.00
2016,08,22,05,36,0.00
2016,08,22,05,37,0.00
2016,08,22,05,38,0.00
2016,08,22,05,39,2.60
2016,08,22,05,40,0.80
2016,08,22,05,41,3.80
2016,08,22,05,42,0.50
2016,08,22,05,43,0.00
2016,08,22,05,44,1.00
2016,08,22,05,45,2.40
2016,08,22,05,46,0.10
2016,08,22,05,47,0.70
2016,08,22,05,48,6.20
2016,08,22,05,49,5.80
2016,08,22,05,50,6.10
2016,08,22,05,51,5.40
2016,08,22,05,52,7.00
2016,08,22,05,53,8.60
2016,08,22,05,54,5.50
2016,08,22,05,55,3.70
2016,08,22,05,56,1.10
2016,08,22,05,57,1.40
2016,08,22,05,58,1.30
2016,08,22,05,59,2.30
2016,08,22,06,00,0.70
2016,08,22,06,01,0.80
2016,08,22,06,02,0.10
2016,08,22,06,03,1.30
2016,08,22,06,04,0.30
2016,08,22,06,05,0.00
2016,08,22,06,06,2.90
2016,08,22,06,07,2.70
2016,08,22,06,08,3.30
2016,08,22,06,09,2.40
2016,08,22,06,10,1.60
2016,08,22,06,11,2.10
2016,08,22,06,12,0.40
2016,08,22,06,13,1.60
2016,08,22,06,14,0.30
2016,08,22,06,15,0.00
2016,08,22,06,16,0.00
2016,08,22,06,17,0.00
2016,08,22,06,18,0.90
2016,08,22,06,19,8.00
2016,08,22,06,20,5.40
2016,08,22,06,21,1.90
2016,08,22,06,22,0.10
2016,08,22,06,23,2.50
2016,08,22,06,24,2.00
2016,08,22,06,25,3.80
2016,08,22,06,26,3.60
2016,08,22,06,27,3.30
2016,08,22,06,28,2.70
2016,08,22,06,29,3.80
2016,08,22,06,30,3.40
2016,08,22,06,31,6.20
2016,08,22,06,32,8.50
2016,08,22,06,33,2.20
2016,08,22,06,34,2.00
2016,08,22,06,35,8.20
2016,08,22,06,36,1.90
2016,08,22,06,37,0.50
2016,08,22,06,38,1.40
2016,08,22,06,39,2.90
2016,08,22,06,40,7.30
2016,08,22,06,41,8.30
2016,08,22,06,42,4.90
2016,08,22,06,43,2.70
2016,08,22,06,44,2.70
2016,08,22,06,45,4.60
2016,08,22,06,46,6.60
2016,08,22,06,47,6.00
2016,08,22,06,48,2.40
2016,08,22,06,49,2.30
2016,08,22,06,50,2.20
2016,08,22,06,51,2.00
2016,08,22,06,52,4.90
2016,08,22,06,53,2.50
2016,08,22,06,54,5.40
2016,08,22,06,55,5.90
2016,08,22,06,56,7.70
2016,08,22,06,57,9.40
2016,08,22,06,58,15.90
2016,08,22,06,59,9.10
2016,08,22,07,00,3.30
2016,08,22,07,01,4.10
2016,08,22,07,02,1.90
2016,08,22,07,03,5.40
2016,08,22,07,04,2.60
2016,08,22,07,05,3.60
2016,08,22,07,06,9.30
2016,08,22,07,07,4.40
2016,08,22,07,08,16.20
2016,08,22,07,09,12.80
2016,08,22,07,10,11.10
2016,08,22,07,11,11.60
2016,08,22,07,12,6.30
2016,08,22,07,13,4.90
2016,08,22,07,14,15.00
2016,08,22,07,15,8.20
2016,08,22,07,16,8.70
2016,08,22,07,17,7.10
2016,08,22,07,18,4.90
2016,08,22,07,19,11.10
2016,08,22,07,20,8.90
2016,08,22,07,21,7.60
2016,08,22,07,22,7.90
2016,08,22,07,23,8.30
2016,08,22,07,24,6.60
2016,08,22,07,25,8.60
2016,08,22,07,26,7.50
2016,08,22,07,27,8.00
2016,08,22,07,28,8.20
2016,08,22,07,29,12.00
2016,08,22,07,30,11.50
2016,08,22,07,31,9.30
2016,08,22,07,32,12.90
2016,08,22,07,33,6.40
2016,08,22,07,34,5.40
2016,08,22,07,35,6.70
2016,08,22,07,36,12.90
2016,08,22,07,37,10.50
2016,08,22,07,38,7.80
2016,08,22,07,39,13.50
2016,08,22,07,40,21.30
2016,08,22,07,41,14.40
2016,08,22,07,42,13.20
2016,08,22,07,43,12.30
2016,08,22,07,44,13.60
2016,08,22,07,45,11.10
2016,08,22,07,46,6.40
2016,08,22,07,47,10.30
2016,08,22,07,48,9.80
2016,08,22,07,49,9.00
2016,08,22,07,50,10.30
2016,08,22,07,51,4.80
2016,08,22,07,52,15.20
2016,08,22,07,53,12.80
2016,08,22,07,54,12.70
2016,08,22,07,55,9.70
2016,08,22,07,56,5.40
2016,08,22,07,57,8.10
2016,08,22,07,58,9.10
2016,08,22,07,59,8.70
2016,08,22,08,00,6.60
2016,08,22,08,01,5.70
2016,08,22,08,02,6.30
2016,08,22,08,03,10.20
2016,08,22,08,04,5.70
2016,08,22,08,05,8.80
2016,08,22,08,06,11.50
2016,08,22,08,07,9.70
2016,08,22,08,08,12.40
2016,08,22,08,09,10.60
2016,08,22,08,10,8.90
2016,08,22,08,11,8.20
2016,08,22,08,12,6.70
2016,08,22,08,13,6.90
2016,08,22,08,14,10.70
2016,08,22,08,15,6.40
2016,08,22,08,16,9.40
2016,08,22,08,17,8.90
2016,08,22,08,18,5.60
2016,08,22,08,19,8.00
2016,08,22,08,20,10.30
2016,08,22,08,21,6.10
2016,08,22,08,22,7.50
2016,08,22,08,23,6.00
2016,08,22,08,24,9.20
2016,08,22,08,25,16.50
2016,08,22,08,26,11.10
2016,08,22,08,27,8.00
2016,08,22,08,28,12.50
2016,08,22,08,29,8.90
2016,08,22,08,30,6.90
2016,08,22,08,31,4.20
2016,08,22,08,32,9.50
2016,08,22,08,33,8.20
2016,08,22,08,34,6.10
2016,08,22,08,35,10.80
2016,08,22,08,36,11.30
2016,08,22,08,37,6.60
2016,08,22,08,38,6.80
2016,08,22,08,39,8.20
2016,08,22,08,40,7.60
2016,08,22,08,41,11.10
2016,08,22,08,42,13.80
2016,08,22,08,43,11.20
2016,08,22,08,44,4.80
2016,08,22,08,45,9.70
2016,08,22,08,46,3.30
2016,08,22,08,47,8.20
2016,08,22,08,48,3.00
2016,08,22,08,49,5.30
2016,08,22,08,50,7.70
2016,08,22,08,51,6.60
2016,08,22,08,52,4.20
2016,08,22,08,53,6.60
2016,08,22,08,54,6.90
2016,08,22,08,55,8.50
2016,08,22,08,56,3.60
2016,08,22,08,57,2.50
2016,08,22,08,58,5.20
2016,08,22,08,59,4.00
2016,08,22,09,00,3.20
2016,08,22,09,01,5.10
2016,08,22,09,02,9.60
2016,08,22,09,03,7.30
2016,08,22,09,04,6.00
2016,08,22,09,05,5.60
2016,08,22,09,06,8.20
2016,08,22,09,07,4.40
2016,08,22,09,08,7.20
2016,08,22,09,09,3.10
2016,08,22,09,10,6.70
2016,08,22,09,11,8.80
2016,08,22,09,12,9.50
2016,08,22,09,13,10.70
2016,08,22,09,14,6.60
2016,08,22,09,15,6.10
2016,08,22,09,16,6.30
2016,08,22,09,17,6.00
2016,08,22,09,18,10.90
2016,08,22,09,19,11.50
2016,08,22,09,20,9.50
2016,08,22,09,21,5.90
2016,08,22,09,22,2.70
2016,08,22,09,23,4.20
2016,08,22,09,24,11.60
2016,08,22,09,25,9.80
2016,08,22,09,26,10.50
2016,08,22,09,27,12.90
2016,08,22,09,28,14.70
2016,08,22,09,29,10.90
2016,08,22,09,30,10.40
2016,08,22,09,31,10.00
2016,08,22,09,32,12.60
2016,08,22,09,33,5.60
2016,08,22,09,34,2.90
2016,08,22,09,35,3.00
2016,08,22,09,36,3.90
2016,08,22,09,37,4.80
2016,08,22,09,38,0.80
2016,08,22,09,39,0.80
2016,08,22,09,40,3.20
2016,08,22,09,41,3.60
2016,08,22,09,42,6.70
2016,08,22,09,43,4.10
2016,08,22,09,44,2.70
2016,08,22,09,45,2.40
2016,08,22,09,46,6.10
2016,08,22,09,47,2.90
2016,08,22,09,48,4.90
2016,08,22,09,49,3.00
2016,08,22,09,50,3.90
2016,08,22,09,51,3.70
2016,08,22,09,52,2.00
2016,08,22,09,53,1.90
2016,08,22,09,54,2.40
2016,08,22,09,55,5.80
2016,08,22,09,56,8.50
2016,08,22,09,57,5.80
2016,08,22,09,58,2.20
2016,08,22,09,59,3.70
2016,08,22,10,00,4.50
2016,08,22,10,01,4.50
2016,08,22,10,02,2.20
2016,08,22,10,03,7.30
2016,08,22,10,04,3.70
2016,08,22,10,05,1.70
2016,08,22,10,06,2.00
2016,08,22,10,07,3.60
2016,08,22,10,08,2.80
2016,08,22,10,09,5.00
2016,08,22,10,10,7.90
2016,08,22,10,11,4.50
2016,08,22,10,12,11.10
2016,08,22,10,13,9.20
2016,08,22,10,14,6.50
2016,08,22,10,15,5.50
2016,08,22,10,16,10.00
2016,08,22,10,17,6.80
2016,08,22,10,18,9.00
2016,08,22,10,19,5.00
2016,08,22,10,20,2.00
2016,08,22,10,21,3.70
2016,08,22,10,22,4.20
2016,08,22,10,23,3.60
2016,08,22,10,24,8.90
2016,08,22,10,25,5.80
2016,08,22,10,26,5.20
2016,08,22,10,27,2.20
2016,08,22,10,28,4.20
2016,08,22,10,29,5.70
2016,08,22,10,30,3.50
2016,08,22,10,31,5.90
2016,08,22,10,32,10.90
2016,08,22,10,33,3.00
2016,08,22,10,34,5.40
2016,08,22,10,35,14.40
2016,08,22,10,36,8.30
2016,08,22,10,37,3.50
2016,08,22,10,38,4.20
2016,08,22,10,39,4.10
2016,08,22,10,40,3.30
2016,08,22,10,41,5.80
2016,08,22,10,42,5.30
2016,08,22,10,43,4.30
2016,08,22,10,44,5.40
2016,08,22,10,45,3.80
2016,08,22,10,46,4.70
2016,08,22,10,47,7.80
2016,08,22,10,48,9.20
2016,08,22,10,49,5.70
2016,08,22,10,50,5.40
2016,08,22,10,51,3.50
2016,08,22,10,52,4.20
2016,08,22,10,53,6.20
2016,08,22,10,54,6.40
2016,08,22,10,55,7.90
2016,08,22,10,56,8.10
2016,08,22,10,57,8.00
2016,08,22,10,58,7.30
2016,08,22,10,59,11.20
2016,08,22,11,00,6.80
2016,08,22,11,01,6.30
2016,08,22,11,02,9.80
2016,08,22,11,03,7.10
2016,08,22,11,04,5.20
2016,08,22,11,05,7.00
2016,08,22,11,06,5.80
2016,08,22,11,07,6.00
2016,08,22,11,08,7.00
2016,08,22,11,09,7.50
2016,08,22,11,10,8.90
2016,08,22,11,11,7.20
2016,08,22,11,12,6.00
2016,08,22,11,13,4.50
2016,08,22,11,14,7.90
2016,08,22,11,15,8.00
2016,08,22,11,16,7.00
2016,08,22,11,17,6.70
2016,08,22,11,18,8.20
2016,08,22,11,19,8.50
2016,08,22,11,20,7.00
2016,08,22,11,21,6.20
2016,08,22,11,22,7.60
2016,08,22,11,23,11.30
2016,08,22,11,24,7.70
2016,08,22,11,25,6.80
2016,08,22,11,26,7.00
2016,08,22,11,27,6.90
2016,08,22,11,28,8.40
2016,08,22,11,29,10.60
2016,08,22,11,30,4.30
2016,08,22,11,31,4.00
2016,08,22,11,32,7.00
2016,08,22,11,33,8.10
2016,08,22,11,34,4.80
2016,08,22,11,35,6.70
2016,08,22,11,36,5.20
2016,08,22,11,37,5.40
2016,08,22,11,38,9.10
2016,08,22,11,39,11.40
2016,08,22,11,40,6.80
2016,08,22,11,41,4.40
2016,08,22,11,42,3.70
2016,08,22,11,43,6.30
2016,08,22,11,44,4.70
2016,08,22,11,45,6.70
2016,08,22,11,46,6.70
2016,08,22,11,47,9.00
2016,08,22,11,48,6.60
2016,08,22,11,49,5.80
2016,08,22,11,50,5.00
2016,08,22,11,51,6.40
2016,08,22,11,52,5.60
2016,08,22,11,53,3.80
2016,08,22,11,54,2.60
2016,08,22,11,55,6.40
2016,08,22,11,56,5.10
2016,08,22,11,57,7.70
2016,08,22,11,58,8.80
2016,08,22,11,59,5.80
2016,08,22,12,00,3.50
2016,08,22,12,01,7.10
2016,08,22,12,02,4.60
2016,08,22,12,03,7.90
2016,08,22,12,04,7.40
2016,08,22,12,05,5.70
2016,08,22,12,06,5.70
2016,08,22,12,07,3.70
2016,08,22,12,08,6.70
2016,08,22,12,09,5.80
2016,08,22,12,10,1.50
2016,08,22,12,11,3.00
2016,08,22,12,12,3.20
2016,08,22,12,13,9.10
2016,08,22,12,14,6.60
2016,08,22,12,15,5.80
2016,08,22,12,16,3.00
2016,08,22,12,17,6.50
2016,08,22,12,18,3.10
2016,08,22,12,19,4.80
2016,08,22,12,20,3.80
2016,08,22,12,21,5.90
2016,08,22,12,22,5.00
2016,08,22,12,23,5.10
2016,08,22,12,24,7.30
2016,08,22,12,25,9.40
2016,08,22,12,26,9.00
2016,08,22,12,27,5.10
2016,08,22,12,28,6.40
2016,08,22,12,29,9.30
2016,08,22,12,30,7.00
2016,08,22,12,31,8.60
2016,08,22,12,32,6.10
2016,08,22,12,33,4.50
2016,08,22,12,34,5.80
2016,08,22,12,35,6.30
2016,08,22,12,36,4.30
2016,08,22,12,37,3.20
2016,08,22,12,38,6.60
2016,08,22,12,39,3.20
2016,08,22,12,40,5.70
2016,08,22,12,41,5.80
2016,08,22,12,42,5.30
2016,08,22,12,43,6.60
2016,08,22,12,44,9.70
2016,08,22,12,45,8.20
2016,08,22,12,46,8.80
2016,08,22,12,47,2.60
2016,08,22,12,48,7.40
2016,08,22,12,49,6.70
2016,08,22,12,50,7.40
2016,08,22,12,51,6.00
2016,08,22,12,52,2.20
2016,08,22,12,53,3.50
2016,08,22,12,54,4.60
2016,08,22,12,55,4.70
2016,08,22,12,56,7.60
2016,08,22,12,57,5.70
2016,08,22,12,58,5.70
2016,08,22,12,59,7.30
2016,08,22,13,00,5.10
2016,08,22,13,01,4.50
2016,08,22,13,02,5.80
2016,08,22,13,03,5.20
2016,08,22,13,04,2.60
2016,08,22,13,05,4.00
2016,08,22,13,06,3.10
2016,08,22,13,07,4.80
2016,08,22,13,08,7.60
2016,08,22,13,09,9.80
2016,08,22,13,10,4.50
2016,08,22,13,11,4.60
2016,08,22,13,12,6.60
2016,08,22,13,13,6.40
2016,08,22,13,14,5.50
2016,08,22,13,15,9.40
2016,08,22,13,16,5.70
2016,08,22,13,17,8.60
2016,08,22,13,18,3.60
2016,08,22,13,19,7.80
2016,08,22,13,20,5.80
2016,08,22,13,21,5.90
2016,08,22,13,22,5.90
2016,08,22,13,23,5.70
2016,08,22,13,24,3.10
2016,08,22,13,25,4.60
2016,08,22,13,26,4.00
2016,08,22,13,27,7.70
2016,08,22,13,28,8.30
2016,08,22,13,29,6.10
2016,08,22,13,30,4.30
2016,08,22,13,31,7.10
2016,08,22,13,32,6.30
2016,08,22,13,33,4.40
2016,08,22,13,34,2.30
2016,08,22,13,35,5.50
2016,08,22,13,36,3.30
2016,08,22,13,37,5.30
2016,08,22,13,38,8.80
2016,08,22,13,39,6.80
2016,08,22,13,40,5.00
2016,08,22,13,41,12.20
2016,08,22,13,42,13.60
2016,08,22,13,43,8.70
2016,08,22,13,44,7.00
2016,08,22,13,45,7.90
2016,08,22,13,46,8.10
2016,08,22,13,47,4.60
2016,08,22,13,48,4.30
2016,08,22,13,49,5.60
2016,08,22,13,50,6.70
2016,08,22,13,51,6.90
2016,08,22,13,52,2.40
2016,08,22,13,53,3.50
2016,08,22,13,54,4.00
2016,08,22,13,55,3.10
2016,08,22,13,56,5.20
2016,08,22,13,57,4.60
2016,08,22,13,58,4.90
2016,08,22,13,59,4.30
2016,08,22,14,00,3.90
2016,08,22,14,01,4.40
2016,08,22,14,02,5.20
2016,08,22,14,03,9.60
2016,08,22,14,04,8.50
2016,08,22,14,05,4.90
2016,08,22,14,06,3.00
2016,08,22,14,07,9.90
2016,08,22,14,08,8.80
2016,08,22,14,09,4.80
2016,08,22,14,10,6.30
2016,08,22,14,11,1.80
2016,08,22,14,12,2.90
2016,08,22,14,13,5.30
2016,08,22,14,14,2.90
2016,08,22,14,15,6.00
2016,08,22,14,16,3.60
2016,08,22,14,17,2.90
2016,08,22,14,18,2.60
2016,08,22,14,19,2.70
2016,08,22,14,20,4.80
2016,08,22,14,21,3.30
2016,08,22,14,22,2.10
2016,08,22,14,23,3.10
2016,08,22,14,24,3.60
2016,08,22,14,25,4.40
2016,08,22,14,26,5.20
2016,08,22,14,27,4.90
2016,08,22,14,28,4.50
2016,08,22,14,29,2.20
2016,08,22,14,30,5.20
2016,08,22,14,31,2.70
2016,08,22,14,32,7.80
2016,08,22,14,33,7.70
2016,08,22,14,34,6.10
2016,08,22,14,35,6.80
2016,08,22,14,36,5.10
2016,08,22,14,37,3.20
2016,08,22,14,38,4.60
2016,08,22,14,39,8.00
2016,08,22,14,40,6.20
2016,08,22,14,41,7.80
2016,08,22,14,42,3.50
2016,08,22,14,43,4.60
2016,08,22,14,44,0.80
2016,08,22,14,45,4.40
2016,08,22,14,46,2.40
2016,08,22,14,47,4.40
2016,08,22,14,48,3.90
2016,08,22,14,49,5.40
2016,08,22,14,50,5.50
2016,08,22,14,51,5.70
2016,08,22,14,52,3.30
2016,08,22,14,53,4.80
2016,08,22,14,54,4.60
2016,08,22,14,55,3.40
2016,08,22,14,56,2.60
2016,08,22,14,57,3.70
2016,08,22,14,58,4.70
2016,08,22,14,59,4.20
2016,08,22,15,00,7.30
2016,08,22,15,01,6.70
2016,08,22,15,02,8.20
2016,08,22,15,03,6.00
2016,08,22,15,04,3.80
2016,08,22,15,05,2.00
2016,08,22,15,06,5.10
2016,08,22,15,07,6.10
2016,08,22,15,08,5.00
2016,08,22,15,09,3.90
2016,08,22,15,10,3.10
2016,08,22,15,11,5.50
2016,08,22,15,12,5.20
2016,08,22,15,13,2.30
2016,08,22,15,14,4.50
2016,08,22,15,15,3.00
2016,08,22,15,16,7.60
2016,08,22,15,17,6.80
2016,08,22,15,18,8.70
2016,08,22,15,19,10.00
2016,08,22,15,20,4.30
2016,08,22,15,21,4.70
2016,08,22,15,22,7.50
2016,08,22,15,23,2.60
2016,08,22,15,24,5.70
2016,08,22,15,25,6.60
2016,08,22,15,26,4.80
2016,08,22,15,27,6.50
2016,08,22,15,28,3.60
2016,08,22,15,29,5.30
2016,08,22,15,30,6.40
2016,08,22,15,31,3.70
2016,08,22,15,32,3.00
2016,08,22,15,33,1.90
2016,08,22,15,34,7.30
2016,08,22,15,35,5.80
2016,08,22,15,36,3.10
2016,08,22,15,37,4.70
2016,08,22,15,38,5.60
2016,08,22,15,39,3.10
2016,08,22,15,40,1.70
2016,08,22,15,41,7.10
2016,08,22,15,42,3.30
2016,08,22,15,43,5.60
2016,08,22,15,44,4.50
2016,08,22,15,45,5.10
2016,08,22,15,46,6.20
2016,08,22,15,47,6.30
2016,08,22,15,48,3.80
2016,08,22,15,49,4.70
2016,08,22,15,50,6.00
2016,08,22,15,51,6.00
2016,08,22,15,52,5.60
2016,08,22,15,53,3.60
2016,08,22,15,54,5.30
2016,08,22,15,55,3.20
2016,08,22,15,56,5.20
2016,08,22,15,57,4.50
2016,08,22,15,58,7.60
2016,08,22,15,59,5.10
2016,08,22,16,00,2.90
2016,08,22,16,01,3.90
2016,08,22,16,02,3.80
2016,08,22,16,03,4.60
2016,08,22,16,04,2.30
2016,08,22,16,05,4.80
2016,08,22,16,06,3.00
2016,08,22,16,07,3.90
2016,08,22,16,08,5.70
2016,08,22,16,09,6.60
2016,08,22,16,10,3.80
2016,08,22,16,11,4.30
2016,08,22,16,12,4.80
2016,08,22,16,13,5.50
2016,08,22,16,14,3.10
2016,08,22,16,15,5.70
2016,08,22,16,16,4.40
2016,08,22,16,17,4.70
2016,08,22,16,18,3.30
2016,08,22,16,19,4.80
2016,08,22,16,20,2.50
2016,08,22,16,21,2.00
2016,08,22,16,22,2.10
2016,08,22,16,23,6.10
2016,08,22,16,24,2.10
2016,08,22,16,25,4.50
2016,08,22,16,26,1.00
2016,08,22,16,27,2.30
2016,08,22,16,28,4.20
2016,08,22,16,29,4.50
2016,08,22,16,30,2.40
2016,08,22,16,31,1.10
2016,08,22,16,32,6.10
2016,08,22,16,33,6.00
2016,08,22,16,34,3.70
2016,08,22,16,35,4.50
2016,08,22,16,36,1.80
2016,08,22,16,37,3.50
2016,08,22,16,38,3.50
2016,08,22,16,39,2.50
2016,08,22,16,40,6.30
2016,08,22,16,41,4.30
2016,08,22,16,42,2.80
2016,08,22,16,43,1.10
2016,08,22,16,44,1.70
2016,08,22,16,45,5.00
2016,08,22,16,46,1.90
2016,08,22,16,47,4.50
2016,08,22,16,48,2.40
2016,08,22,16,49,1.60
2016,08,22,16,50,4.60
2016,08,22,16,51,5.10
2016,08,22,16,52,4.90
2016,08,22,16,53,4.60
2016,08,22,16,54,4.10
2016,08,22,16,55,3.90
2016,08,22,16,56,4.80
2016,08,22,16,57,1.10
2016,08,22,16,58,4.70
2016,08,22,16,59,4.60
2016,08,22,17,00,4.10
2016,08,22,17,01,1.90
2016,08,22,17,02,2.50
2016,08,22,17,03,2.40
2016,08,22,17,04,1.30
2016,08,22,17,05,3.20
2016,08,22,17,06,2.00
2016,08,22,17,07,4.00
2016,08,22,17,08,1.40
2016,08,22,17,09,2.40
2016,08,22,17,10,3.70
2016,08,22,17,11,3.90
2016,08,22,17,12,1.00
2016,08,22,17,13,1.40
2016,08,22,17,14,0.70
2016,08,22,17,15,3.10
2016,08,22,17,16,0.80
2016,08,22,17,17,2.90
2016,08,22,17,18,2.10
2016,08,22,17,19,4.60
2016,08,22,17,20,3.30
2016,08,22,17,21,2.90
2016,08,22,17,22,4.20
2016,08,22,17,23,3.70
2016,08,22,17,24,2.40
2016,08,22,17,25,3.70
2016,08,22,17,26,7.60
2016,08,22,17,27,4.20
2016,08,22,17,28,0.40
2016,08,22,17,29,1.90
2016,08,22,17,30,4.90
2016,08,22,17,31,2.90
2016,08,22,17,32,3.70
2016,08,22,17,33,3.20
2016,08,22,17,34,4.00
2016,08,22,17,35,6.30
2016,08,22,17,36,2.80
2016,08,22,17,37,3.70
2016,08,22,17,38,2.40
2016,08,22,17,39,5.50
2016,08,22,17,40,3.90
2016,08,22,17,41,2.30
2016,08,22,17,42,2.50
2016,08,22,17,43,3.30
2016,08,22,17,44,1.90
2016,08,22,17,45,4.60
2016,08,22,17,46,5.50
2016,08,22,17,47,1.50
2016,08,22,17,48,4.00
2016,08,22,17,49,4.90
2016,08,22,17,50,5.80
2016,08,22,17,51,3.40
2016,08,22,17,52,3.10
2016,08,22,17,53,1.40
2016,08,22,17,54,2.90
2016,08,22,17,55,2.10
2016,08,22,17,56,3.70
2016,08,22,17,57,3.50
2016,08,22,17,58,2.70
2016,08,22,17,59,1.30
2016,08,22,18,00,1.20
2016,08,22,18,01,0.40
2016,08,22,18,02,3.20
2016,08,22,18,03,4.00